EXPRESS-AM7

Last updated on Thu Nov 21 2024 00:02:42 GMT+0000 (Coordinated Universal Time)

1 40505U 15012A 24325.23163854 .00000152 00000+0 00000+0 0 9997 2 40505 0.0170 325.4414 0003143 287.4885 290.1976 1.00271497 35250
UTC large
Height (km)
Speed (km/s)
/
Latitude / Longitude
Inclination (degrees)
Orbital Period (minutes)
Azimuth
Elevation
Range (km)
Doppler Factor

Next 0 passes for location: London (51.5072 / 0.1276)

Sorry there are no passes over London.